Regional Weather Roundup
Issued by NWS Portland, ME

Home | Current Version | Previous Version | Text Only | Print | Product List | Glossary On
Versions: 1 2 3 4 5 6 7 8 9 10 11 12 13 14 15 16 17 18 19 20 21 22 23 24 25 26 27 28 29 30 31 32 33 34 35 36 37 38 39 40 41 42 43 44 45 46 47 48 49 50
000
ASUS41 KGYX 250810
RWRGYX
WEATHER ROUNDUP FOR MAINE AND NEW HAMPSHIRE
NATIONAL WEATHER SERVICE GRAY ME
400 AM EDT MON MAY 25 2015

MEZ002-005-006-010-012-015-018-020-021-024-026-027-029-250900-
MAINE

CITY           SKY/WX    TMP DP  RH WIND       PRES   REMARKS
PORTLAND       CLOUDY    59  43  55 CALM      30.16S
BAR HARBOR     CLOUDY    55  48  76 SW5       30.13R
WISCASSET      CLOUDY    51  46  83 CALM      30.16S
ROCKLAND       CLOUDY    55  45  67 W5        30.13S
FRYEBURG       CLOUDY    62  40  44 SW7       30.16S
LEWISTONAUBURN CLOUDY    54  43  66 CALM      30.15S
AUGUSTA        CLOUDY    61  42  49 SW5       30.14R
WATERVILLE       N/A    N/A N/A N/A MISG        N/A
BANGOR         CLOUDY    55  49  80 SW5       30.11S
GREENVILLE       N/A     57  42  57 CALM      30.08S
MILLINOCKET    MOCLDY    49  46  90 CALM      30.08S
HOULTON        PTCLDY    58  44  60 S7        30.03F
PRESQUE ISLE   MOCLDY    52  43  71 W5        30.03R
FRENCHVILLE    MOCLDY    50  27  40 SW5       30.01S
CARIBOU        PTCLDY    50  44  80 CALM      30.01S
$$

NHZ002-005-008-009-011-012-014-250900-
NEW HAMPSHIRE

CITY           SKY/WX    TMP DP  RH WIND       PRES   REMARKS
PORTSMOUTH     CLOUDY    59  48  66 W5        30.17S
ROCHESTER      CLOUDY    58  45  62 SW5       30.17S
NASHUA         CLOUDY    59  50  72 CALM      30.20S
MANCHESTER     CLOUDY    60  47  61 CALM      30.19R
CONCORD        CLOUDY    52  45  77 CALM      30.19S
LACONIA        MOCLDY    54  43  66 W3        30.17S
PLYMOUTH       FAIR      47  47 100 CALM      30.19S
BERLIN         MOCLDY    44  40  85 CALM      30.17S
WHITEFIELD     MOCLDY    45  40  82 CALM      30.17S
JAFFREY        CLOUDY    55  49  80 S5        30.23S
KEENE          CLOUDY    50  46  87 CALM      30.23S
LEBANON        CLOUDY    51  44  77 CALM      30.19R
MT WASHINGTON  MOCLDY    43  30  61 W33         N/A
$$

VTZ005-007-008-250900-
VERMONT

CITY           SKY/WX    TMP DP  RH WIND       PRES   REMARKS
ST JOHNSBURY     N/A     50  44  80 MISG      30.15S
MONTPELIER     MOCLDY    57  39  51 CALM      30.21S
BURLINGTON     CLOUDY    65  38  36 S9        30.13R
$$

MAZ007-012-024-CTZ003-RIZ002-NYZ038-NYZ072-250900-
SOUTHERN NEW ENGLAND AND NY

CITY           SKY/WX    TMP DP  RH WIND       PRES   REMARKS
BOSTON         CLOUDY    60  50  69 S8        30.22R
WORCESTER      CLOUDY    58  47  66 W9        30.24R
NANTUCKET      MOCLDY    55  52  89 SW13      30.28S
PROVIDENCE     MOCLDY    56  48  74 S6        30.25R
HARTFORD       CLOUDY    58  50  75 S6        30.23R
ALBANY         CLOUDY    63  44  50 S5        30.20R
NEW YORK CITY  PTCLDY    65  51  60 S6        30.25S
$$

ANZ081-ANZ082-ANZ150-NHZ014-MEZ023>029-250900-
COASTAL MARINE OBSERVATIONS

STATION/POSITION TIME  TEMP    WIND        PRES    WAVE
                       AIR SEA DIR/SP/G            HT/PER
                 (UTC) (F)     (DEG/KT/KT) (MB)    (FT/S)
MOUNT DESERT ROC 0800   51     230/ 21/ 21   N/A
MATINICUS ROCK   0800   50     250/ 17/ 18   N/A
ISLE OF SHOALS   0800   62     230/ 15/ 16   N/A
JEFFREYS LEDGE   0703      48                N/A     2/ 5
CASHES LEDGE BUO 0750   53 48                N/A     4/ 6
GEORGES BANK BUO 0750   52 47  220/ 12/ 12   N/A     4/ 6
$$

.............KEY..............
   WCI - WIND CHILL
   TC  - TEMPERATURE IN CELSIUS
   VSB - VISIBILITY IN MILES
   HX  - HEAT INDEX
   FAIR- INDICATES FEW OR NO CLOUDS BELOW 12,000 FT, WITH NO
         SIGNIFICANT WEATHER AND/OR OBSTRUCTIONS TO VISIBILITY.





USA.gov is the U.S. government's official web portal to all federal, state and local government web resources and services.